Tracking 34706 objects as of 10-Jul-2026
HD Live streaming from Space Station
objects crossing your sky now

ONEWEB-0353

Track ONEWEB-0353 now!
10-day predictions
ONEWEB-0353 is classified as:


NORAD ID: 49282
Int'l Code: 2021-090D
Perigee: 1,211.5 km
Apogee: 1,214.4 km
Inclination: 87.9 °
Period: 109.5 minutes
Semi major axis: 7583 km
RCS: Unknown
Launch date: October 14, 2021
Source: United Kingdom (UK)
Launch site: VOSTOCHNY COSMODROME (VOSTO)
Your satellite tracking list
Your tracking list is empty




NASA's NSSDC Master Catalog

Two Line Element Set (TLE):
1 49282U 21090D   26189.82815762 -.00000242  00000-0 -68671-3 0  9993
2 49282  87.8973 285.3932 0001894 106.9835 253.1502 13.14502022230424
Source of the keplerian elements: AFSPC